Location: Borea
(45.6167°N, 23.0167°E)
Time: 01:19:33
(UTC+00:00)

OPS 8068 - Pass Details

Date: 27 February 2024
Orbit: 631 x 963 km, 98.3° (Epoch: 13 April)

Event Time Altitude Azimuth Distance (km) Brightness Sun altitude
Rises 02:34:04 0° 147° (SSE) 2,920 ? -28.0°
Reaches altitude 10° 02:36:17 10° 141° (SE) 2,031 ? -27.7°
Maximum altitude 02:40:28 45° 69° (ENE) 906 ? -26.9°
Drops below altitude 10° 02:44:55 10° 358° (N) 2,163 ? -26.2°
Sets 02:47:19 0° 352° (N) 3,133 ? -25.8°
